| time (UTC) | temp F | wind direction | speed knots | gust knots | rain 1hr in | rain 24hr in | rain mn in | humidity % | barometer mb |
| 20260505012030 | 63 | 0 | 0.0 | 0.0 | 0.00 | 0.00 | 0.00 | 59 | 1016.9 |
| 20260505011543 | 63 | 0 | 0.0 | 0.0 | 0.00 | 0.00 | 0.00 | 58 | 1017.0 |
| 20260505011030 | 64 | 0 | 0.0 | 0.0 | 0.00 | 0.00 | 0.00 | 58 | 1016.9 |
| 20260505010530 | 65 | 0 | 0.0 | 0.0 | 0.00 | 0.00 | 0.00 | 56 | 1016.8 |
| 20260505010054 | 65 | 0 | 0.0 | 0.0 | 0.00 | 0.00 | 0.00 | 54 | 1016.6 |
| 20260505005531 | 66 | 0 | 0.0 | 0.0 | 0.00 | 0.00 | 0.00 | 53 | 1016.6 |
| 20260505005031 | 66 | 0 | 0.0 | 1.7 | 0.00 | 0.00 | 0.00 | 52 | 1016.6 |
| 20260505004548 | 67 | 0 | 0.0 | 1.7 | 0.00 | 0.00 | 0.00 | 51 | 1016.5 |
| 20260505004030 | 67 | 0 | 0.0 | 0.0 | 0.00 | 0.00 | 0.00 | 50 | 1016.6 |
| 20260505003529 | 68 | 0 | 0.0 | 0.0 | 0.00 | 0.00 | 0.00 | 49 | 1016.5 |
| 20260505003054 | 68 | 0 | 0.0 | 0.0 | 0.00 | 0.00 | 0.00 | 47 | 1016.6 |
| 20260505002530 | 69 | 0 | 0.0 | 0.0 | 0.00 | 0.00 | 0.00 | 48 | 1016.5 |
| 20260505002030 | 69 | 0 | 0.0 | 0.0 | 0.00 | 0.00 | 0.00 | 45 | 1016.5 |
| 20260505001541 | 70 | 0 | 0.0 | 0.0 | 0.00 | 0.00 | 0.00 | 45 | 1016.5 |
| 20260505001032 | 70 | 0 | 0.0 | 0.0 | 0.00 | 0.00 | 0.00 | 44 | 1016.5 |
| 20260505000530 | 71 | 0 | 0.0 | 0.0 | 0.00 | 0.00 | 0.00 | 44 | 1016.5 |
| 20260505000040 | 71 | 0 | 0.0 | 0.0 | 0.00 | 0.00 | 0.00 | 42 | 1016.5 |
| 20260504235530 | 72 | 0 | 0.0 | 0.9 | 0.00 | 0.00 | 0.00 | 42 | 1016.5 |
| 20260504235031 | 72 | 0 | 0.0 | 2.6 | 0.00 | 0.00 | 0.00 | 39 | 1016.4 |
| 20260504234536 | 73 | 0 | 0.0 | 3.5 | 0.00 | 0.00 | 0.00 | 37 | 1016.5 |
| 20260504234030 | 73 | 0 | 0.9 | 3.5 | 0.00 | 0.00 | 0.00 | 37 | 1016.4 |
| 20260504233530 | 73 | 0 | 0.0 | 2.6 | 0.00 | 0.00 | 0.00 | 37 | 1016.5 |
| 20260504233045 | 74 | 0 | 0.0 | 2.6 | 0.00 | 0.00 | 0.00 | 35 | 1016.6 |
| 20260504232530 | 74 | 0 | 0.0 | 2.6 | 0.00 | 0.00 | 0.00 | 34 | 1016.6 |
| 20260504232029 | 74 | 0 | 0.0 | 5.2 | 0.00 | 0.00 | 0.00 | 33 | 1016.5 |
| 20260504231539 | 74 | 0 | 0.0 | 5.2 | 0.00 | 0.00 | 0.00 | 33 | 1016.5 |
| 20260504231029 | 74 | 0 | 0.9 | 4.3 | 0.00 | 0.00 | 0.00 | 33 | 1016.5 |
| 20260504230530 | 75 | 0 | 0.0 | 2.6 | 0.00 | 0.00 | 0.00 | 32 | 1016.5 |
| 20260504230110 | 75 | 221 | 0.0 | 6.1 | 0.00 | 0.00 | 0.00 | 33 | 1016.4 |
| 20260504225530 | 75 | 0 | 0.9 | 6.1 | 0.00 | 0.00 | 0.00 | 31 | 1016.3 |
| 20260504225029 | 76 | 250 | 1.7 | 5.2 | 0.00 | 0.00 | 0.00 | 31 | 1016.3 |
| 20260504224545 | 76 | 262 | 0.0 | 4.3 | 0.00 | 0.00 | 0.00 | 31 | 1016.3 |
| 20260504224030 | 76 | 300 | 0.9 | 4.3 | 0.00 | 0.00 | 0.00 | 30 | 1016.4 |
| 20260504223530 | 76 | 0 | 0.0 | 2.6 | 0.00 | 0.00 | 0.00 | 30 | 1016.4 |
| 20260504223056 | 76 | 238 | 0.0 | 3.5 | 0.00 | 0.00 | 0.00 | 30 | 1016.5 |
| 20260504222530 | 76 | 0 | 0.9 | 5.2 | 0.00 | 0.00 | 0.00 | 30 | 1016.4 |
| 20260504222030 | 77 | 258 | 0.9 | 7.8 | 0.00 | 0.00 | 0.00 | 32 | 1016.3 |
| 20260504221542 | 77 | 255 | 2.6 | 7.8 | 0.00 | 0.00 | 0.00 | 32 | 1016.5 |
| 20260504221030 | 77 | 267 | 0.9 | 5.2 | 0.00 | 0.00 | 0.00 | 32 | 1016.5 |
| 20260504220530 | 77 | 0 | 0.0 | 6.1 | 0.00 | 0.00 | 0.00 | 33 | 1016.6 |
| 20260504220042 | 77 | 248 | 0.9 | 6.1 | 0.00 | 0.00 | 0.00 | 33 | 1016.5 |
| 20260504215531 | 77 | 0 | 0.0 | 1.7 | 0.00 | 0.00 | 0.00 | 32 | 1016.4 |
| 20260504215034 | 77 | 0 | 0.0 | 0.9 | 0.00 | 0.00 | 0.00 | 31 | 1016.5 |
| 20260504214541 | 77 | 0 | 0.0 | 3.5 | 0.00 | 0.00 | 0.00 | 30 | 1016.4 |
| 20260504214033 | 77 | 247 | 0.0 | 3.5 | 0.00 | 0.00 | 0.00 | 28 | 1016.4 |
| 20260504213530 | 78 | 219 | 0.9 | 3.5 | 0.00 | 0.00 | 0.00 | 27 | 1016.5 |
| 20260504213038 | 78 | 215 | 0.0 | 2.6 | 0.00 | 0.00 | 0.00 | 27 | 1016.4 |
| 20260504212531 | 77 | 0 | 0.0 | 3.5 | 0.00 | 0.00 | 0.00 | 27 | 1016.4 |
| 20260504212031 | 77 | 300 | 0.0 | 3.5 | 0.00 | 0.00 | 0.00 | 29 | 1016.4 |
| 20260504211604 | 77 | 0 | 0.0 | 2.6 | 0.00 | 0.00 | 0.00 | 28 | 1016.4 |
| 20260504211031 | 77 | 0 | 0.0 | 7.0 | 0.00 | 0.00 | 0.00 | 29 | 1016.3 |
| 20260504210533 | 77 | 240 | 1.7 | 7.0 | 0.00 | 0.00 | 0.00 | 27 | 1016.5 |
| 20260504210046 | 77 | 0 | 0.9 | 3.5 | 0.00 | 0.00 | 0.00 | 25 | 1016.5 |
| 20260504205530 | 78 | 0 | 0.9 | 4.3 | 0.00 | 0.00 | 0.00 | 27 | 1016.5 |
| 20260504205032 | 78 | 234 | 0.0 | 5.2 | 0.00 | 0.00 | 0.00 | 27 | 1016.4 |
| 20260504204542 | 78 | 266 | 1.7 | 5.2 | 0.00 | 0.00 | 0.00 | 25 | 1016.5 |
| 20260504204031 | 79 | 276 | 0.0 | 3.5 | 0.00 | 0.00 | 0.00 | 28 | 1016.5 |
| 20260504203531 | 78 | 319 | 0.9 | 6.1 | 0.00 | 0.00 | 0.00 | 28 | 1016.6 |
| 20260504203044 | 79 | 190 | 1.7 | 6.1 | 0.00 | 0.00 | 0.00 | 28 | 1016.8 |
| 20260504202530 | 78 | 0 | 2.6 | 7.0 | 0.00 | 0.00 | 0.00 | 28 | 1016.9 |
| 20260504202030 | 79 | 190 | 1.7 | 7.0 | 0.00 | 0.00 | 0.00 | 28 | 1016.8 |
| 20260504201542 | 79 | 200 | 0.9 | 2.6 | 0.00 | 0.00 | 0.00 | 31 | 1016.8 |
| 20260504201030 | 79 | 0 | 0.0 | 3.5 | 0.00 | 0.00 | 0.00 | 30 | 1016.8 |
| 20260504200530 | 79 | 329 | 0.0 | 3.5 | 0.00 | 0.00 | 0.00 | 28 | 1016.8 |
| 20260504200039 | 79 | 222 | 0.0 | 7.8 | 0.00 | 0.00 | 0.00 | 30 | 1016.9 |
| 20260504195531 | 79 | 29 | 0.9 | 7.8 | 0.00 | 0.00 | 0.00 | 31 | 1016.8 |
| 20260504195030 | 79 | 231 | 0.9 | 6.1 | 0.00 | 0.00 | 0.00 | 29 | 1016.9 |
| 20260504194549 | 79 | 0 | 0.0 | 3.5 | 0.00 | 0.00 | 0.00 | 30 | 1017.0 |
| 20260504194030 | 79 | 236 | 0.9 | 3.5 | 0.00 | 0.00 | 0.00 | 28 | 1017.0 |
| 20260504193531 | 79 | 0 | 0.9 | 2.6 | 0.00 | 0.00 | 0.00 | 30 | 1017.2 |
| 20260504193051 | 79 | 262 | 0.9 | 3.5 | 0.00 | 0.00 | 0.00 | 28 | 1017.3 |
| 20260504192529 | 79 | 0 | 0.9 | 3.5 | 0.00 | 0.00 | 0.00 | 28 | 1017.4 |
| 20260504192030 | 78 | 0 | 1.7 | 3.5 | 0.00 | 0.00 | 0.00 | 30 | 1017.5 |
| 20260504191556 | 78 | 335 | 0.9 | 3.5 | 0.00 | 0.00 | 0.00 | 30 | 1017.5 |
| 20260504191031 | 78 | 0 | 0.0 | 3.5 | 0.00 | 0.00 | 0.00 | 30 | 1017.5 |
| 20260504190531 | 77 | 0 | 0.9 | 3.5 | 0.00 | 0.00 | 0.00 | 30 | 1017.6 |
| 20260504190104 | 77 | 197 | 0.9 | 4.3 | 0.00 | 0.00 | 0.00 | 31 | 1017.8 |
| 20260504185532 | 77 | 0 | 0.0 | 5.2 | 0.00 | 0.00 | 0.00 | 31 | 1018.0 |
| 20260504185030 | 77 | 244 | 1.7 | 5.2 | 0.00 | 0.00 | 0.00 | 32 | 1018.0 |
| 20260504184548 | 76 | 236 | 0.9 | 4.3 | 0.00 | 0.00 | 0.00 | 34 | 1018.0 |
| 20260504184033 | 76 | 0 | 2.6 | 4.3 | 0.00 | 0.00 | 0.00 | 29 | 1018.1 |
| 20260504183531 | 76 | 20 | 0.9 | 5.2 | 0.00 | 0.00 | 0.00 | 30 | 1018.3 |
| 20260504183045 | 76 | 250 | 1.7 | 6.1 | 0.00 | 0.00 | 0.00 | 30 | 1018.1 |
| 20260504182530 | 76 | 269 | 0.9 | 6.1 | 0.00 | 0.00 | 0.00 | 34 | 1018.2 |
| 20260504182031 | 76 | 0 | 1.7 | 5.2 | 0.00 | 0.00 | 0.00 | 30 | 1018.2 |
| 20260504181544 | 76 | 111 | 1.7 | 6.1 | 0.00 | 0.00 | 0.00 | 30 | 1018.2 |
| 20260504181030 | 76 | 278 | 0.9 | 6.1 | 0.00 | 0.00 | 0.00 | 33 | 1018.2 |
| 20260504180530 | 75 | 303 | 0.9 | 5.2 | 0.00 | 0.00 | 0.00 | 34 | 1018.2 |
| 20260504180042 | 75 | 0 | 0.9 | 6.1 | 0.00 | 0.00 | 0.00 | 34 | 1018.3 |
| 20260504175529 | 75 | 190 | 1.7 | 6.1 | 0.00 | 0.00 | 0.00 | 32 | 1018.4 |
| 20260504175030 | 75 | 200 | 1.7 | 5.2 | 0.00 | 0.00 | 0.00 | 34 | 1018.4 |
| 20260504174544 | 75 | 292 | 1.7 | 5.2 | 0.00 | 0.00 | 0.00 | 34 | 1018.4 |
| 20260504174030 | 75 | 256 | 1.7 | 7.0 | 0.00 | 0.00 | 0.00 | 34 | 1018.5 |
| 20260504173530 | 75 | 65 | 1.7 | 7.0 | 0.00 | 0.00 | 0.00 | 32 | 1018.5 |
| 20260504173048 | 75 | 94 | 3.5 | 7.0 | 0.00 | 0.00 | 0.00 | 33 | 1018.6 |
| 20260504172529 | 74 | 60 | 0.9 | 4.3 | 0.00 | 0.00 | 0.00 | 34 | 1018.6 |
| 20260504172030 | 74 | 242 | 0.9 | 4.3 | 0.00 | 0.00 | 0.00 | 33 | 1018.7 |
| 20260504171540 | 74 | 203 | 0.0 | 3.5 | 0.00 | 0.00 | 0.00 | 33 | 1018.8 |
| 20260504171031 | 73 | 234 | 1.7 | 3.5 | 0.00 | 0.00 | 0.00 | 33 | 1018.8 |
| 20260504170531 | 73 | 289 | 0.9 | 4.3 | 0.00 | 0.00 | 0.00 | 34 | 1018.9 |
| 20260504151030 | 71 | 152 | 0.9 | 2.6 | 0.00 | 0.00 | 0.00 | 36 | 1020.1 |
| 20260504150531 | 71 | 255 | 0.0 | 2.6 | 0.00 | 0.00 | 0.00 | 39 | 1020.2 |
| 20260504141029 | 68 | 68 | 0.0 | 3.5 | 0.00 | 0.00 | 0.00 | 43 | 1020.2 |
| 20260504140530 | 68 | 0 | 0.9 | 3.5 | 0.00 | 0.00 | 0.00 | 44 | 1020.2 |
| 20260504130531 | 62 | 0 | 0.0 | 0.9 | 0.00 | 0.00 | 0.00 | 72 | 1020.3 |
| 20260504110531 | 44 | 0 | 0.0 | 0.0 | 0.00 | 0.00 | 0.00 | 94 | 1019.6 |
| 20260504100530 | 44 | 0 | 0.0 | 0.0 | 0.00 | 0.00 | 0.00 | 93 | 1019.6 |
| 20260504081545 | 46 | 0 | 0.0 | 0.0 | 0.00 | 0.00 | 0.00 | 91 | 1019.5 |
| 20260504081032 | 46 | 0 | 0.0 | 0.0 | 0.00 | 0.00 | 0.00 | 91 | 1019.6 |
| 20260504080532 | 46 | 0 | 0.0 | 0.0 | 0.00 | 0.00 | 0.00 | 91 | 1019.6 |
| 20260504050531 | 49 | 0 | 0.0 | 0.9 | 0.00 | 0.00 | 0.00 | 86 | 1020.1 |
| 20260504045530 | 49 | 0 | 0.0 | 0.9 | 0.00 | 0.00 | 0.00 | 86 | 1020.2 |
| 20260504045032 | 49 | 0 | 0.0 | 0.0 | 0.00 | 0.00 | 0.00 | 85 | 1020.1 |
| 20260504044538 | 49 | 0 | 0.0 | 0.0 | 0.00 | 0.00 | 0.00 | 86 | 1020.1 |
| 20260504044030 | 49 | 0 | 0.0 | 0.0 | 0.00 | 0.00 | 0.00 | 85 | 1020.0 |
| 20260504043529 | 49 | 0 | 0.0 | 0.0 | 0.00 | 0.00 | 0.00 | 85 | 1020.0 |
| 20260504043043 | 49 | 0 | 0.0 | 0.0 | 0.00 | 0.00 | 0.00 | 85 | 1020.0 |
| 20260504042532 | 50 | 0 | 0.0 | 0.0 | 0.00 | 0.00 | 0.00 | 85 | 1020.2 |
| 20260504042030 | 50 | 0 | 0.0 | 0.0 | 0.00 | 0.00 | 0.00 | 85 | 1020.2 |
| 20260504041538 | 50 | 0 | 0.0 | 0.0 | 0.00 | 0.00 | 0.00 | 85 | 1020.1 |
| 20260504041029 | 50 | 0 | 0.0 | 0.0 | 0.00 | 0.00 | 0.00 | 85 | 1020.1 |
| 20260504040526 | 50 | 0 | 0.0 | 0.0 | 0.00 | 0.00 | 0.00 | 85 | 1020.1 |
| 20260504040107 | 50 | 0 | 0.0 | 0.0 | 0.00 | 0.00 | 0.00 | 85 | 1020.1 |
| 20260504035530 | 50 | 0 | 0.0 | 0.0 | 0.00 | 0.00 | 0.00 | 84 | 1020.0 |
| 20260504035026 | 50 | 0 | 0.0 | 0.0 | 0.00 | 0.00 | 0.00 | 84 | 1020.0 |
| 20260504034543 | 50 | 0 | 0.0 | 0.0 | 0.00 | 0.00 | 0.00 | 83 | 1020.0 |
| 20260504034030 | 50 | 0 | 0.0 | 0.0 | 0.00 | 0.00 | 0.00 | 83 | 1020.1 |
| 20260504033526 | 50 | 0 | 0.0 | 0.0 | 0.00 | 0.00 | 0.00 | 83 | 1020.1 |
| 20260504033045 | 50 | 0 | 0.0 | 0.0 | 0.00 | 0.00 | 0.00 | 83 | 1020.1 |
| 20260504032530 | 51 | 0 | 0.0 | 0.0 | 0.00 | 0.00 | 0.00 | 82 | 1020.0 |
| 20260504032030 | 51 | 0 | 0.0 | 0.0 | 0.00 | 0.00 | 0.00 | 82 | 1019.9 |
| 20260504031553 | 51 | 0 | 0.0 | 0.0 | 0.00 | 0.00 | 0.00 | 81 | 1019.9 |
| 20260504031034 | 51 | 0 | 0.0 | 0.0 | 0.00 | 0.00 | 0.00 | 81 | 1020.0 |
| 20260504030529 | 51 | 0 | 0.0 | 0.0 | 0.00 | 0.00 | 0.00 | 80 | 1019.9 |
| 20260504030044 | 51 | 0 | 0.0 | 0.0 | 0.00 | 0.00 | 0.00 | 79 | 1020.0 |
| 20260504025530 | 52 | 0 | 0.0 | 0.0 | 0.00 | 0.00 | 0.00 | 80 | 1020.0 |
| 20260504025029 | 52 | 0 | 0.0 | 0.0 | 0.00 | 0.00 | 0.00 | 79 | 1019.9 |
| 20260504024544 | 52 | 0 | 0.0 | 0.0 | 0.00 | 0.00 | 0.00 | 79 | 1019.9 |
| 20260504024027 | 52 | 0 | 0.0 | 0.0 | 0.00 | 0.00 | 0.00 | 79 | 1020.0 |
| 20260504023529 | 52 | 0 | 0.0 | 0.0 | 0.00 | 0.00 | 0.00 | 79 | 1019.8 |
| 20260504023042 | 53 | 0 | 0.0 | 0.0 | 0.00 | 0.00 | 0.00 | 78 | 1019.8 |
| 20260504022531 | 53 | 0 | 0.0 | 0.0 | 0.00 | 0.00 | 0.00 | 77 | 1019.7 |
| 20260504022030 | 53 | 0 | 0.0 | 0.0 | 0.00 | 0.00 | 0.00 | 76 | 1019.7 |
| 20260504021543 | 53 | 0 | 0.0 | 0.0 | 0.00 | 0.00 | 0.00 | 75 | 1019.7 |
| 20260504021030 | 54 | 0 | 0.0 | 0.0 | 0.00 | 0.00 | 0.00 | 74 | 1019.6 |
| 20260504020529 | 54 | 0 | 0.0 | 0.0 | 0.00 | 0.00 | 0.00 | 73 | 1019.6 |
| 20260504020046 | 54 | 0 | 0.0 | 0.0 | 0.00 | 0.00 | 0.00 | 72 | 1019.5 |
| 20260504015534 | 54 | 0 | 0.0 | 0.0 | 0.00 | 0.00 | 0.00 | 71 | 1019.4 |
| 20260504015030 | 55 | 0 | 0.0 | 0.0 | 0.00 | 0.00 | 0.00 | 70 | 1019.5 |
| 20260504014543 | 55 | 0 | 0.0 | 0.0 | 0.00 | 0.00 | 0.00 | 70 | 1019.4 |
| 20260504014031 | 55 | 0 | 0.0 | 0.0 | 0.00 | 0.00 | 0.00 | 69 | 1019.4 |
| 20260504013530 | 56 | 0 | 0.0 | 0.0 | 0.00 | 0.00 | 0.00 | 68 | 1019.3 |
| 20260504013046 | 56 | 0 | 0.0 | 0.0 | 0.00 | 0.00 | 0.00 | 67 | 1019.4 |
| 20260504012530 | 56 | 0 | 0.0 | 0.0 | 0.00 | 0.00 | 0.00 | 67 | 1019.3 |